Regional Weather Roundup
Issued by NWS

Home | Current Version | Previous Version | Graphics & Text | Print | Product List | Glossary On
Versions: 1 2 3 4 5 6 7 8 9 10 11 12 13 14 15 16 17 18 19 20 21 22 23 24 25 26 27 28 29 30 31 32 33 34 35 36 37 38 39 40 41 42 43 44 45 46 47 48 49 50
000
ASUS45 KBOU 292107
RWRCO

WEATHER ROUNDUP FOR COLORADO
NATIONAL WEATHER SERVICE DENVER/BOULDER CO
300 PM MDT SUN MAY 29 2016

NOTE: "FAIR" INDICATES FEW OR NO CLOUDS BELOW 12000 FEET WITH NO
SIGNIFICANT WEATHER AND/OR OBSTRUCTIONS TO VISIBILITY.

COZ001>005-013-030-031-292200-
...NORTHWEST COLORADO...

CITY           SKY/WX    TMP DP  RH WIND       PRES   REMARKS
CRAIG          PTSUNNY   71  38  29 S8        30.15F
HAYDEN         FAIR      61  32  33 S14G21    30.19R
MEEKER         FAIR      67  31  26 SW5       30.18F
MOUNT WERNER   NOT AVBL
STEAMBOAT SPGS FAIR      64  34  32 S17G26    30.22R
WALDEN         NOT AVBL
$$

COZ006>008-011-292200-
...WEST CENTRAL VALLEYS...

CITY           SKY/WX    TMP DP  RH WIND       PRES   REMARKS
GRAND JUNCTION FAIR      78  27  15 CALM      30.05F
MONTROSE       FAIR      71  30  21 SE15G24   30.18F
EAGLE          MOSUNNY   72  27  18 W17G23    30.18F
RIFLE          PTSUNNY   76  33  21 NE10G17   30.12S
DELTA          FAIR      77  29  17 S14       30.13S
NUCLA          LGT RAIN  64  37  36 SE18G29   30.19R
$$

COZ017>023-064>068-292200-
...SOUTHWEST COLORADO...

CITY           SKY/WX    TMP DP  RH WIND       PRES   REMARKS
DURANGO        FAIR      75  14  10 SW8G22    30.15F
CORTEZ         FAIR      80  20  10 S10G22    30.10F
PAGOSA SPRINGS FAIR      70  15  12 SE8       30.24F
TELLURIDE      CLOUDY    55  26  33 SE10      30.38F
WOLF CREEK PAS FAIR      43  21  42 S3        30.53R
$$

COZ009-010-012-014-032>034-037-058>063-292200-
...CENTRAL COLORADO...

CITY           SKY/WX    TMP DP  RH WIND       PRES   REMARKS
ASPEN          FAIR      69  27  20 N9        30.23F
BUENA VISTA    CLOUDY    64  23  20 W18G24    30.26R
COPPER MTN     NOT AVBL
BERTHOUD PASS  FAIR      39  30  70 W17G24    30.49F
COTTONWOOD PAS DRIZZLE   54  27  35 W10G25    30.39R
GUNNISON       PTSUNNY   57  28  33 SW16      30.35R
KREMMLING      PTSUNNY   59  37  44 NE12G17   30.25F
LEADVILLE      PTSUNNY   59  19  21 W16G22    30.35R
MONARCH PASS   FAIR      45  23  42 S18G33    30.60S
SALIDA         FAIR      68  23  18 SW16G25   30.31F
SUNLIGHT       LGT RAIN  48  30  49 W3        30.45F
WILKERSON PASS CLOUDY    52  23  32 SW7       30.46F
$$

COZ069>075-292200-
...SAN LUIS VALLEY/SANGRE DE CRISTO MOUNTAINS...

CITY           SKY/WX    TMP DP  RH WIND       PRES   REMARKS
ALAMOSA        FAIR      67  28  23 N15       30.23F
LA VETA PASS   FAIR      63  23  22 S9G17     30.39F
SAGUACHE       CLOUDY    54  32  43 NW28G36   30.34R
$$

COZ035-036-038>040-292200-
...NORTHERN COLORADO FRONT RANGE...

CITY           SKY/WX    TMP DP  RH WIND       PRES   REMARKS
DENVER INTL AP PTSUNNY   73  45  36 S3        30.09F
DMNS CITY PARK   N/A     74  32  21 E8G15     30.07F
AURORA         PTSUNNY   73  36  26 W6        30.11F
FRONT RANGE AP PTSUNNY   72  43  35 NE8       30.10F
ERIE MUNI ARPT FAIR      75  34  21 SW3       30.07F
BOULDER MUN AP FAIR      77  37  24 S8G16     30.07F
CENTENNIAL     PTSUNNY   72  34  24 E16G22    30.11F
BROOMFIELD     PTSUNNY   72  37  28 CALM      30.12F
FORT COLLINS   FAIR      75  48  38 NE6       30.08S
LONGMONT       FAIR      81  36  19 E5        30.09F
$$

COZ041-046-047-076>085-087-088-292200-
...PIKES PEAK/PALMER DIVIDE AND SOUTHERN FOOTHILLS...

CITY           SKY/WX    TMP DP  RH WIND       PRES   REMARKS
COLO. SPRINGS  TSTM      67  37  33 NW7       30.18R
A. F. ACADEMY  CLOUDY    61  36  39 S20G28    30.17F
SCHRIEVER AFB  NOT AVBL
ELLICOTT       FAIR     N/A N/A N/A S13G18    30.13F THUNDER
FALCON         TSTM      61  35  37 NW12G28   30.23R
FORT CARSON    TSTM      70  37  30 NW23G31   30.13R
LIMON          FAIR      76  43  30 S10       30.10F
MONUMENT HILL  FAIR      61  36  39 S17G23    30.19F
TRINIDAD       FAIR      76  30  18 NW8       30.13F
$$

COZ042>045-048>051-090-091-292200-
...NORTHEAST COLORADO...

CITY           SKY/WX    TMP DP  RH WIND       PRES   REMARKS
GREELEY ARPT   FAIR      75  39  27 E7        30.07F
AKRON          FAIR      78  44  29 SW6       30.07F
BURLINGTON     FAIR      81  43  26 SW9G20    30.04F
WRAY           FAIR      82  45  26 S9        30.03F
STERLING       FAIR      79  45  29 SW3       30.03F
HOLYOKE        NOT AVBL
FORT MORGAN    FAIR      80  41  25 E5        30.06F
$$

COZ086-089-092>099-292200-
...SOUTHEAST COLORADO...

CITY           SKY/WX    TMP DP  RH WIND       PRES   REMARKS
PUEBLO         FAIR      75  38  26 S17G24    30.07S
LA JUNTA       FAIR      84  46  26 NW9       30.02F
LAMAR          FAIR      88  43  20 MISG      29.97F
SPRINGFIELD      N/A     75  53  46 SE21      30.05F
$$



USA.gov is the U.S. government's official web portal to all federal, state and local government web resources and services.